Location: Avully
(45.9633°N, 6.0228°E)
Time: 02:39:07
(UTC+00:00)

USA 267 - Pass Details

Date: 23 May 2024
Orbit: 1100 x 1107 km, 123.0° (Epoch: 21 May)

Event Time Altitude Azimuth Distance (km) Brightness Sun altitude
Rises 00:16:12 0° 52° (NE) 3,922 6.9 -22.7°
Reaches altitude 10° 00:18:42 10° 50° (NE) 2,962 6.2 -22.6°
Maximum altitude 00:25:09 67° 330° (NNW) 1,188 3.5 -22.3°
Enters shadow 00:30:21 17° 251° (WSW) 2,482 4.8 -22.1°
